Tracking 22454 objects as of 5-Mar-2021
HD Live streaming from Space Station
objects crossing your sky now

DELTA 1 DEB

Track DELTA 1 DEB now!
10-day predictions


NORAD ID: 27577
Int'l Code: 1975-052LE
Perigee: 1,039.5 km
Apogee: 1,157.8 km
Inclination: 99.1 °
Period: 107.1 minutes
Semi major axis: 7469 km
RCS: 0.0165 m2 (small)
Launch date: June 12, 1975
Source: United States (US)
Launch site: AIR FORCE WESTERN TEST RANGE (AFWTR)

Note: This is SATELLITE DEBRIS
aabbcc
Your satellite tracking list
Your tracking list is empty




NASA's NSSDC Master Catalog

Two Line Element Set (TLE):
1 27577U 75052LE  21053.53753273  .00000184  00000-0  37219-3 0  9991
2 27577  99.0668  72.9616 0079166 226.1472 287.2343 13.44783733276481
Source of the keplerian elements: AFSPC